Overview Statistics Trail Chart Weather Telemetry Raw packets
 

This is the latest recevied weather packets stored in our database for station/object C31FR-13. If no packets are shown the sender has not sent any weather packets the latest 10 day(s).

<< 7 8 9 10 11 12 13 >>
Time Temp. Humidity Pressure Rain* Wind** Luminosity Snow
1788396662 21.67° C 58% 1026.8 hPa - - - -
1788394862 22.22° C 58% 1026.8 hPa - - - -
1788393662 22.78° C 57% 1026.9 hPa - - - -
1788392162 22.78° C 56% 1026.8 hPa - - - -
1788391562 22.78° C 56% 1026.6 hPa - - - -
1788388262 23.33° C 55% 1026.2 hPa - - - -
1788383762 24.44° C 51% 1025.8 hPa - - - -
1788380162 25.56° C 48% 1025.1 hPa - - - -
1788379262 26.11° C 47% 1024.9 hPa - - - -
1788377162 26.67° C 47% 1024.3 hPa - - - -
1788376862 26.67° C 47% 1024.2 hPa - - - -
1788375661 26.67° C 46% 1023.8 hPa - - - -
1788374462 27.22° C 46% 1023.6 hPa - - - -
1788372362 27.78° C 44% 1023.1 hPa - - - -
1788372062 27.78° C 43% 1023 hPa - - - -
1788370262 28.33° C 40% 1022.8 hPa - - - -
1788369362 29.44° C 37% 1022.6 hPa - - - -
1788369062 29.44° C 35% 1022.6 hPa - - - -
1788366080 31.11° C 28% 1022.4 hPa - - - -
1788364262 31.11° C 29% 1022.5 hPa - - - -
1788363062 31.11° C 27% 1022.4 hPa - - - -
1788362162 30.56° C 27% 1022.4 hPa - - - -
1788361562 30.56° C 27% 1022.5 hPa - - - -
1788360662 30° C 27% 1022.7 hPa - - - -
1788357962 28.89° C 30% 1023.1 hPa - - - -

* Rain since midnight (hover to see other rain measurements)
** Current wind speed in m/s (hover to see current wind gust speed)